Year,Month,Day,Hour,Minute,Value (Times are PST for temperature in C)
2007,07,11,00,00,26.00
2007,07,11,00,01,26.10
2007,07,11,00,02,26.10
2007,07,11,00,03,26.10
2007,07,11,00,04,26.00
2007,07,11,00,05,26.00
2007,07,11,00,06,26.00
2007,07,11,00,07,26.00
2007,07,11,00,08,26.10
2007,07,11,00,09,26.10
2007,07,11,00,10,26.10
2007,07,11,00,11,26.20
2007,07,11,00,12,26.20
2007,07,11,00,13,26.20
2007,07,11,00,14,26.20
2007,07,11,00,15,26.20
2007,07,11,00,16,26.20
2007,07,11,00,17,26.20
2007,07,11,00,18,26.20
2007,07,11,00,19,26.20
2007,07,11,00,20,26.20
2007,07,11,00,21,26.20
2007,07,11,00,22,26.20
2007,07,11,00,23,26.20
2007,07,11,00,24,26.30
2007,07,11,00,25,26.30
2007,07,11,00,26,26.30
2007,07,11,00,27,26.30
2007,07,11,00,28,26.30
2007,07,11,00,29,26.30
2007,07,11,00,30,26.20
2007,07,11,00,31,26.00
2007,07,11,00,32,25.90
2007,07,11,00,33,25.90
2007,07,11,00,34,25.90
2007,07,11,00,35,25.90
2007,07,11,00,36,25.90
2007,07,11,00,37,25.90
2007,07,11,00,38,25.90
2007,07,11,00,39,25.80
2007,07,11,00,40,25.80
2007,07,11,00,41,25.80
2007,07,11,00,42,25.70
2007,07,11,00,43,25.70
2007,07,11,00,44,25.60
2007,07,11,00,45,25.60
2007,07,11,00,46,25.50
2007,07,11,00,47,25.50
2007,07,11,00,48,25.40
2007,07,11,00,49,25.40
2007,07,11,00,50,25.30
2007,07,11,00,51,25.20
2007,07,11,00,52,25.10
2007,07,11,00,53,25.00
2007,07,11,00,54,25.00
2007,07,11,00,55,24.90
2007,07,11,00,56,24.80
2007,07,11,00,57,24.80
2007,07,11,00,58,24.70
2007,07,11,00,59,24.60
2007,07,11,01,00,24.50
2007,07,11,01,01,24.50
2007,07,11,01,02,24.40
2007,07,11,01,03,24.30
2007,07,11,01,04,24.20
2007,07,11,01,05,24.20
2007,07,11,01,06,24.20
2007,07,11,01,07,24.20
2007,07,11,01,08,24.30
2007,07,11,01,09,24.30
2007,07,11,01,10,24.30
2007,07,11,01,11,24.30
2007,07,11,01,12,24.30
2007,07,11,01,13,24.30
2007,07,11,01,14,24.30
2007,07,11,01,15,24.30
2007,07,11,01,16,24.30
2007,07,11,01,17,24.30
2007,07,11,01,18,24.20
2007,07,11,01,19,24.20
2007,07,11,01,20,24.20
2007,07,11,01,21,24.20
2007,07,11,01,22,24.20
2007,07,11,01,23,24.10
2007,07,11,01,24,24.10
2007,07,11,01,25,24.10
2007,07,11,01,26,24.10
2007,07,11,01,27,24.10
2007,07,11,01,28,24.10
2007,07,11,01,29,24.10
2007,07,11,01,30,24.10
2007,07,11,01,31,24.10
2007,07,11,01,32,24.10
2007,07,11,01,33,24.10
2007,07,11,01,34,24.10
2007,07,11,01,35,24.00
2007,07,11,01,36,23.90
2007,07,11,01,37,23.90
2007,07,11,01,38,23.80
2007,07,11,01,39,23.80
2007,07,11,01,40,23.70
2007,07,11,01,41,23.70
2007,07,11,01,42,23.60
2007,07,11,01,43,23.60
2007,07,11,01,44,23.50
2007,07,11,01,45,23.40
2007,07,11,01,46,23.30
2007,07,11,01,47,23.30
2007,07,11,01,48,23.30
2007,07,11,01,49,23.20
2007,07,11,01,50,23.10
2007,07,11,01,51,23.10
2007,07,11,01,52,23.00
2007,07,11,01,53,22.90
2007,07,11,01,54,22.90
2007,07,11,01,55,22.80
2007,07,11,01,56,22.70
2007,07,11,01,57,22.60
2007,07,11,01,58,22.60
2007,07,11,01,59,22.50
2007,07,11,02,00,22.50
2007,07,11,02,01,22.40
2007,07,11,02,02,22.40
2007,07,11,02,03,22.40
2007,07,11,02,04,22.50
2007,07,11,02,05,22.50
2007,07,11,02,06,22.50
2007,07,11,02,07,22.60
2007,07,11,02,08,22.60
2007,07,11,02,09,22.60
2007,07,11,02,10,22.80
2007,07,11,02,11,22.90
2007,07,11,02,12,22.90
2007,07,11,02,13,23.10
2007,07,11,02,14,23.20
2007,07,11,02,15,23.30
2007,07,11,02,16,23.40
2007,07,11,02,17,23.50
2007,07,11,02,18,23.60
2007,07,11,02,19,23.60
2007,07,11,02,20,23.60
2007,07,11,02,21,23.60
2007,07,11,02,22,23.60
2007,07,11,02,23,23.60
2007,07,11,02,24,23.50
2007,07,11,02,25,23.40
2007,07,11,02,26,23.40
2007,07,11,02,27,23.40
2007,07,11,02,28,23.40
2007,07,11,02,29,23.30
2007,07,11,02,30,23.30
2007,07,11,02,31,23.30
2007,07,11,02,32,23.30
2007,07,11,02,33,23.30
2007,07,11,02,34,23.30
2007,07,11,02,35,23.30
2007,07,11,02,36,23.30
2007,07,11,02,37,23.30
2007,07,11,02,38,23.30
2007,07,11,02,39,23.30
2007,07,11,02,40,23.30
2007,07,11,02,41,23.30
2007,07,11,02,42,23.30
2007,07,11,02,43,23.30
2007,07,11,02,44,23.30
2007,07,11,02,45,23.30
2007,07,11,02,46,23.30
2007,07,11,02,47,23.30
2007,07,11,02,48,23.20
2007,07,11,02,49,23.10
2007,07,11,02,50,23.00
2007,07,11,02,51,22.80
2007,07,11,02,52,22.60
2007,07,11,02,53,22.50
2007,07,11,02,54,22.30
2007,07,11,02,55,22.20
2007,07,11,02,56,22.00
2007,07,11,02,57,21.90
2007,07,11,02,58,21.80
2007,07,11,02,59,21.70
2007,07,11,03,00,21.60
2007,07,11,03,01,21.60
2007,07,11,03,02,21.50
2007,07,11,03,03,21.40
2007,07,11,03,04,21.30
2007,07,11,03,05,21.30
2007,07,11,03,06,21.30
2007,07,11,03,07,21.20
2007,07,11,03,08,21.20
2007,07,11,03,09,21.10
2007,07,11,03,10,21.00
2007,07,11,03,11,21.00
2007,07,11,03,12,21.00
2007,07,11,03,13,20.90
2007,07,11,03,14,20.90
2007,07,11,03,15,20.80
2007,07,11,03,16,20.80
2007,07,11,03,17,20.80
2007,07,11,03,18,20.70
2007,07,11,03,19,20.70
2007,07,11,03,20,20.70
2007,07,11,03,21,20.70
2007,07,11,03,22,20.60
2007,07,11,03,23,20.60
2007,07,11,03,24,20.60
2007,07,11,03,25,20.60
2007,07,11,03,26,20.60
2007,07,11,03,27,20.60
2007,07,11,03,28,20.60
2007,07,11,03,29,20.60
2007,07,11,03,30,20.60
2007,07,11,03,31,20.60
2007,07,11,03,32,20.60
2007,07,11,03,33,20.60
2007,07,11,03,34,20.70
2007,07,11,03,35,20.70
2007,07,11,03,36,20.60
2007,07,11,03,37,20.60
2007,07,11,03,38,20.60
2007,07,11,03,39,20.70
2007,07,11,03,40,20.70
2007,07,11,03,41,20.70
2007,07,11,03,42,20.70
2007,07,11,03,43,20.80
2007,07,11,03,44,20.80
2007,07,11,03,45,20.80
2007,07,11,03,46,20.80
2007,07,11,03,47,20.80
2007,07,11,03,48,20.90
2007,07,11,03,49,20.90
2007,07,11,03,50,20.90
2007,07,11,03,51,20.90
2007,07,11,03,52,20.90
2007,07,11,03,53,20.80
2007,07,11,03,54,20.80
2007,07,11,03,55,20.80
2007,07,11,03,56,20.70
2007,07,11,03,57,20.70
2007,07,11,03,58,20.70
2007,07,11,03,59,20.60
2007,07,11,04,00,20.50
2007,07,11,04,01,20.50
2007,07,11,04,02,20.40
2007,07,11,04,03,20.40
2007,07,11,04,04,20.30
2007,07,11,04,05,20.30
2007,07,11,04,06,20.20
2007,07,11,04,07,20.20
2007,07,11,04,08,20.20
2007,07,11,04,09,20.10
2007,07,11,04,10,20.10
2007,07,11,04,11,20.00
2007,07,11,04,12,19.90
2007,07,11,04,13,19.90
2007,07,11,04,14,19.90
2007,07,11,04,15,19.90
2007,07,11,04,16,19.80
2007,07,11,04,17,19.80
2007,07,11,04,18,19.70
2007,07,11,04,19,19.70
2007,07,11,04,20,19.60
2007,07,11,04,21,19.60
2007,07,11,04,22,19.50
2007,07,11,04,23,19.50
2007,07,11,04,24,19.50
2007,07,11,04,25,19.50
2007,07,11,04,26,19.50
2007,07,11,04,27,19.50
2007,07,11,04,28,19.60
2007,07,11,04,29,19.70
2007,07,11,04,30,19.80
2007,07,11,04,31,20.00
2007,07,11,04,32,20.20
2007,07,11,04,33,20.30
2007,07,11,04,34,20.50
2007,07,11,04,35,20.60
2007,07,11,04,36,20.80
2007,07,11,04,37,21.00
2007,07,11,04,38,21.00
2007,07,11,04,39,21.20
2007,07,11,04,40,21.20
2007,07,11,04,41,21.30
2007,07,11,04,42,21.30
2007,07,11,04,43,21.30
2007,07,11,04,44,21.30
2007,07,11,04,45,21.40
2007,07,11,04,46,21.40
2007,07,11,04,47,21.40
2007,07,11,04,48,21.30
2007,07,11,04,49,21.30
2007,07,11,04,50,21.30
2007,07,11,04,51,21.30
2007,07,11,04,52,21.20
2007,07,11,04,53,21.10
2007,07,11,04,54,21.10
2007,07,11,04,55,21.00
2007,07,11,04,56,20.90
2007,07,11,04,57,20.90
2007,07,11,04,58,20.90
2007,07,11,04,59,21.00
2007,07,11,05,00,21.00
2007,07,11,05,01,21.00
2007,07,11,05,02,21.00
2007,07,11,05,03,21.00
2007,07,11,05,04,21.00
2007,07,11,05,05,21.00
2007,07,11,05,06,21.10
2007,07,11,05,07,21.10
2007,07,11,05,08,21.10
2007,07,11,05,09,21.10
2007,07,11,05,10,21.10
2007,07,11,05,11,21.30
2007,07,11,05,12,21.30
2007,07,11,05,13,21.30
2007,07,11,05,14,21.30
2007,07,11,05,15,21.30
2007,07,11,05,16,21.30
2007,07,11,05,17,21.30
2007,07,11,05,18,21.30
2007,07,11,05,19,21.30
2007,07,11,05,20,21.40
2007,07,11,05,21,21.40
2007,07,11,05,22,21.50
2007,07,11,05,23,21.60
2007,07,11,05,24,21.70
2007,07,11,05,25,21.70
2007,07,11,05,26,21.80
2007,07,11,05,27,21.80
2007,07,11,05,28,21.80
2007,07,11,05,29,21.80
2007,07,11,05,30,21.80
2007,07,11,05,31,21.80
2007,07,11,05,32,21.80
2007,07,11,05,33,21.70
2007,07,11,05,34,21.70
2007,07,11,05,35,21.70
2007,07,11,05,36,21.60
2007,07,11,05,37,21.60
2007,07,11,05,38,21.50
2007,07,11,05,39,21.30
2007,07,11,05,40,21.30
2007,07,11,05,41,21.30
2007,07,11,05,42,21.20
2007,07,11,05,43,21.10
2007,07,11,05,44,21.10
2007,07,11,05,45,21.00
2007,07,11,05,46,21.00
2007,07,11,05,47,20.90
2007,07,11,05,48,20.90
2007,07,11,05,49,20.90
2007,07,11,05,50,20.80
2007,07,11,05,51,20.80
2007,07,11,05,52,20.80
2007,07,11,05,53,20.80
2007,07,11,05,54,20.70
2007,07,11,05,55,20.70
2007,07,11,05,56,20.70
2007,07,11,05,57,20.70
2007,07,11,05,58,20.60
2007,07,11,05,59,20.60
2007,07,11,06,00,20.60
2007,07,11,06,01,20.50
2007,07,11,06,02,20.50
2007,07,11,06,03,20.40
2007,07,11,06,04,20.40
2007,07,11,06,05,20.30
2007,07,11,06,06,20.30
2007,07,11,06,07,20.30
2007,07,11,06,08,20.20
2007,07,11,06,09,20.20
2007,07,11,06,10,20.20
2007,07,11,06,11,20.20
2007,07,11,06,12,20.20
2007,07,11,06,13,20.20
2007,07,11,06,14,20.20
2007,07,11,06,15,20.20
2007,07,11,06,16,20.20
2007,07,11,06,17,20.30
2007,07,11,06,18,20.30
2007,07,11,06,19,20.30
2007,07,11,06,20,20.30
2007,07,11,06,21,20.30
2007,07,11,06,22,20.40
2007,07,11,06,23,20.40
2007,07,11,06,24,20.40
2007,07,11,06,25,20.40
2007,07,11,06,26,20.50
2007,07,11,06,27,20.50
2007,07,11,06,28,20.50
2007,07,11,06,29,20.50
2007,07,11,06,30,20.50
2007,07,11,06,31,20.50
2007,07,11,06,32,20.50
2007,07,11,06,33,20.50
2007,07,11,06,34,20.50
2007,07,11,06,35,20.50
2007,07,11,06,36,20.50
2007,07,11,06,37,20.50
2007,07,11,06,38,20.50
2007,07,11,06,39,20.40
2007,07,11,06,40,20.40
2007,07,11,06,41,20.40
2007,07,11,06,42,20.40
2007,07,11,06,43,20.50
2007,07,11,06,44,20.50
2007,07,11,06,45,20.60
2007,07,11,06,46,20.60
2007,07,11,06,47,20.60
2007,07,11,06,48,20.60
2007,07,11,06,49,20.60
2007,07,11,06,50,20.60
2007,07,11,06,51,20.60
2007,07,11,06,52,20.60
2007,07,11,06,53,20.60
2007,07,11,06,54,20.70
2007,07,11,06,55,20.70
2007,07,11,06,56,20.70
2007,07,11,06,57,20.70
2007,07,11,06,58,20.70
2007,07,11,06,59,20.70
2007,07,11,07,00,20.70
2007,07,11,07,01,20.70
2007,07,11,07,02,20.80
2007,07,11,07,03,20.80
2007,07,11,07,04,20.80
2007,07,11,07,05,20.80
2007,07,11,07,06,20.80
2007,07,11,07,07,20.80
2007,07,11,07,08,20.90
2007,07,11,07,09,20.90
2007,07,11,07,10,20.90
2007,07,11,07,11,20.90
2007,07,11,07,12,20.90
2007,07,11,07,13,20.90
2007,07,11,07,14,21.00
2007,07,11,07,15,21.10
2007,07,11,07,16,21.20
2007,07,11,07,17,21.20
2007,07,11,07,18,21.30
2007,07,11,07,19,21.30
2007,07,11,07,20,21.30
2007,07,11,07,21,21.40
2007,07,11,07,22,21.50
2007,07,11,07,23,21.60
2007,07,11,07,24,21.60
2007,07,11,07,25,21.60
2007,07,11,07,26,21.70
2007,07,11,07,27,21.70
2007,07,11,07,28,21.70
2007,07,11,07,29,21.70
2007,07,11,07,30,21.80
2007,07,11,07,31,21.80
2007,07,11,07,32,21.80
2007,07,11,07,33,21.80
2007,07,11,07,34,22.00
2007,07,11,07,35,22.10
2007,07,11,07,36,22.10
2007,07,11,07,37,22.20
2007,07,11,07,38,22.40
2007,07,11,07,39,22.60
2007,07,11,07,40,22.70
2007,07,11,07,41,22.90
2007,07,11,07,42,23.00
2007,07,11,07,43,23.10
2007,07,11,07,44,23.30
2007,07,11,07,45,23.40
2007,07,11,07,46,23.50
2007,07,11,07,47,23.60
2007,07,11,07,48,23.70
2007,07,11,07,49,23.70
2007,07,11,07,50,23.90
2007,07,11,07,51,24.00
2007,07,11,07,52,24.10
2007,07,11,07,53,24.20
2007,07,11,07,54,24.30
2007,07,11,07,55,24.40
2007,07,11,07,56,24.50
2007,07,11,07,57,24.50
2007,07,11,07,58,24.60
2007,07,11,07,59,24.70
2007,07,11,08,00,24.70
2007,07,11,08,01,24.80
2007,07,11,08,02,24.80
2007,07,11,08,03,24.90
2007,07,11,08,04,24.90
2007,07,11,08,05,25.00
2007,07,11,08,06,25.00
2007,07,11,08,07,25.10
2007,07,11,08,08,25.10
2007,07,11,08,09,25.20
2007,07,11,08,10,25.20
2007,07,11,08,11,25.20
2007,07,11,08,12,25.30
2007,07,11,08,13,25.30
2007,07,11,08,14,25.40
2007,07,11,08,15,25.50
2007,07,11,08,16,25.60
2007,07,11,08,17,25.60
2007,07,11,08,18,25.70
2007,07,11,08,19,25.80
2007,07,11,08,20,25.80
2007,07,11,08,21,25.80
2007,07,11,08,22,25.90
2007,07,11,08,23,25.90
2007,07,11,08,24,26.00
2007,07,11,08,25,26.00
2007,07,11,08,26,26.10
2007,07,11,08,27,26.10
2007,07,11,08,28,26.20
2007,07,11,08,29,26.20
2007,07,11,08,30,26.10
2007,07,11,08,31,25.90
2007,07,11,08,32,25.80
2007,07,11,08,33,25.50
2007,07,11,08,34,25.00
2007,07,11,08,35,24.90
2007,07,11,08,36,24.70
2007,07,11,08,37,24.60
2007,07,11,08,38,24.50
2007,07,11,08,39,24.40
2007,07,11,08,40,24.40
2007,07,11,08,41,24.40
2007,07,11,08,42,24.30
2007,07,11,08,43,24.40
2007,07,11,08,44,24.50
2007,07,11,08,45,24.80
2007,07,11,08,46,25.00
2007,07,11,08,47,25.40
2007,07,11,08,48,25.70
2007,07,11,08,49,25.90
2007,07,11,08,50,26.10
2007,07,11,08,51,26.30
2007,07,11,08,52,26.50
2007,07,11,08,53,26.60
2007,07,11,08,54,26.70
2007,07,11,08,55,26.80
2007,07,11,08,56,26.90
2007,07,11,08,57,27.00
2007,07,11,08,58,27.10
2007,07,11,08,59,27.20
2007,07,11,09,00,27.30
2007,07,11,09,01,27.30
2007,07,11,09,02,27.30
2007,07,11,09,03,27.30
2007,07,11,09,04,27.30
2007,07,11,09,05,27.40
2007,07,11,09,06,27.40
2007,07,11,09,07,27.40
2007,07,11,09,08,27.40
2007,07,11,09,09,27.30
2007,07,11,09,10,27.00
2007,07,11,09,11,26.70
2007,07,11,09,12,26.50
2007,07,11,09,13,26.20
2007,07,11,09,14,26.00
2007,07,11,09,15,25.90
2007,07,11,09,16,25.80
2007,07,11,09,17,25.70
2007,07,11,09,18,25.70
2007,07,11,09,19,25.90
2007,07,11,09,20,26.10
2007,07,11,09,21,26.20
2007,07,11,09,22,26.60
2007,07,11,09,23,26.80
2007,07,11,09,24,26.90
2007,07,11,09,25,27.10
2007,07,11,09,26,27.20
2007,07,11,09,27,27.30
2007,07,11,09,28,27.30
2007,07,11,09,29,27.40
2007,07,11,09,30,27.50
2007,07,11,09,31,27.60
2007,07,11,09,32,27.70
2007,07,11,09,33,27.70
2007,07,11,09,34,27.80
2007,07,11,09,35,27.90
2007,07,11,09,36,27.90
2007,07,11,09,37,28.00
2007,07,11,09,38,28.00
2007,07,11,09,39,28.10
2007,07,11,09,40,28.20
2007,07,11,09,41,28.20
2007,07,11,09,42,28.20
2007,07,11,09,43,28.20
2007,07,11,09,44,28.20
2007,07,11,09,45,28.20
2007,07,11,09,46,28.30
2007,07,11,09,47,28.30
2007,07,11,09,48,28.40
2007,07,11,09,49,28.50
2007,07,11,09,50,28.60
2007,07,11,09,51,28.70
2007,07,11,09,52,28.70
2007,07,11,09,53,28.70
2007,07,11,09,54,28.80
2007,07,11,09,55,28.80
2007,07,11,09,56,28.80
2007,07,11,09,57,28.90
2007,07,11,09,58,28.90
2007,07,11,09,59,28.90
2007,07,11,10,00,28.90
2007,07,11,10,01,28.90
2007,07,11,10,02,29.00
2007,07,11,10,03,29.10
2007,07,11,10,04,29.10
2007,07,11,10,05,29.10
2007,07,11,10,06,29.10
2007,07,11,10,07,29.10
2007,07,11,10,08,29.20
2007,07,11,10,09,29.20
2007,07,11,10,10,29.20
2007,07,11,10,11,29.20
2007,07,11,10,12,29.30
2007,07,11,10,13,29.30
2007,07,11,10,14,29.40
2007,07,11,10,15,29.40
2007,07,11,10,16,29.40
2007,07,11,10,17,29.40
2007,07,11,10,18,29.40
2007,07,11,10,19,29.50
2007,07,11,10,20,29.50
2007,07,11,10,21,29.50
2007,07,11,10,22,29.60
2007,07,11,10,23,29.60
2007,07,11,10,24,29.60
2007,07,11,10,25,29.60
2007,07,11,10,26,29.60
2007,07,11,10,27,29.60
2007,07,11,10,28,29.60
2007,07,11,10,29,29.60
2007,07,11,10,30,29.60
2007,07,11,10,31,29.70
2007,07,11,10,32,29.70
2007,07,11,10,33,29.70
2007,07,11,10,34,29.70
2007,07,11,10,35,29.70
2007,07,11,10,36,29.80
2007,07,11,10,37,29.80
2007,07,11,10,38,29.80
2007,07,11,10,39,29.80
2007,07,11,10,40,29.80
2007,07,11,10,41,29.80
2007,07,11,10,42,29.80
2007,07,11,10,43,29.80
2007,07,11,10,44,29.80
2007,07,11,10,45,29.80
2007,07,11,10,46,29.80
2007,07,11,10,47,29.80
2007,07,11,10,48,29.80
2007,07,11,10,49,29.80
2007,07,11,10,50,29.90
2007,07,11,10,51,30.00
2007,07,11,10,52,30.10
2007,07,11,10,53,30.20
2007,07,11,10,54,30.20
2007,07,11,10,55,30.20
2007,07,11,10,56,30.20
2007,07,11,10,57,30.10
2007,07,11,10,58,30.10
2007,07,11,10,59,30.10
2007,07,11,11,00,30.20
2007,07,11,11,01,30.30
2007,07,11,11,02,30.40
2007,07,11,11,03,30.50
2007,07,11,11,04,30.60
2007,07,11,11,05,30.50
2007,07,11,11,06,30.60
2007,07,11,11,07,30.60
2007,07,11,11,08,30.60
2007,07,11,11,09,30.60
2007,07,11,11,10,30.70
2007,07,11,11,11,30.80
2007,07,11,11,12,30.90
2007,07,11,11,13,31.00
2007,07,11,11,14,31.00
2007,07,11,11,15,31.10
2007,07,11,11,16,31.10
2007,07,11,11,17,31.10
2007,07,11,11,18,31.10
2007,07,11,11,19,31.10
2007,07,11,11,20,31.10
2007,07,11,11,21,31.10
2007,07,11,11,22,31.20
2007,07,11,11,23,31.20
2007,07,11,11,24,31.30
2007,07,11,11,25,31.30
2007,07,11,11,26,31.30
2007,07,11,11,27,31.40
2007,07,11,11,28,31.50
2007,07,11,11,29,31.60
2007,07,11,11,30,31.60
2007,07,11,11,31,31.70
2007,07,11,11,32,31.70
2007,07,11,11,33,31.70
2007,07,11,11,34,31.60
2007,07,11,11,35,31.50
2007,07,11,11,36,31.40
2007,07,11,11,37,31.30
2007,07,11,11,38,31.30
2007,07,11,11,39,31.30
2007,07,11,11,40,31.30
2007,07,11,11,41,31.30
2007,07,11,11,42,31.40
2007,07,11,11,43,31.60
2007,07,11,11,44,31.70
2007,07,11,11,45,31.70
2007,07,11,11,46,31.70
2007,07,11,11,47,31.80
2007,07,11,11,48,31.80
2007,07,11,11,49,31.80
2007,07,11,11,50,31.80
2007,07,11,11,51,31.80
2007,07,11,11,52,31.80
2007,07,11,11,53,31.80
2007,07,11,11,54,31.80
2007,07,11,11,55,31.80
2007,07,11,11,56,31.80
2007,07,11,11,57,31.80
2007,07,11,11,58,31.70
2007,07,11,11,59,31.80
2007,07,11,12,00,31.80
2007,07,11,12,01,31.80
2007,07,11,12,02,31.80
2007,07,11,12,03,31.90
2007,07,11,12,04,31.90
2007,07,11,12,05,31.90
2007,07,11,12,06,31.90
2007,07,11,12,07,31.90
2007,07,11,12,08,31.90
2007,07,11,12,09,32.00
2007,07,11,12,10,32.10
2007,07,11,12,11,32.20
2007,07,11,12,12,32.20
2007,07,11,12,13,32.30
2007,07,11,12,14,32.30
2007,07,11,12,15,32.40
2007,07,11,12,16,32.40
2007,07,11,12,17,32.40
2007,07,11,12,18,32.40
2007,07,11,12,19,32.20
2007,07,11,12,20,32.20
2007,07,11,12,21,32.20
2007,07,11,12,22,32.20
2007,07,11,12,23,32.20
2007,07,11,12,24,32.10
2007,07,11,12,25,32.10
2007,07,11,12,26,32.10
2007,07,11,12,27,32.20
2007,07,11,12,28,32.20
2007,07,11,12,29,32.20
2007,07,11,12,30,32.20
2007,07,11,12,31,32.30
2007,07,11,12,32,32.30
2007,07,11,12,33,32.30
2007,07,11,12,34,32.40
2007,07,11,12,35,32.40
2007,07,11,12,36,32.50
2007,07,11,12,37,32.60
2007,07,11,12,38,32.50
2007,07,11,12,39,32.50
2007,07,11,12,40,32.50
2007,07,11,12,41,32.40
2007,07,11,12,42,32.40
2007,07,11,12,43,32.40
2007,07,11,12,44,32.40
2007,07,11,12,45,32.50
2007,07,11,12,46,32.50
2007,07,11,12,47,32.60
2007,07,11,12,48,32.60
2007,07,11,12,49,32.70
2007,07,11,12,50,32.90
2007,07,11,12,51,32.90
2007,07,11,12,52,32.80
2007,07,11,12,53,32.60
2007,07,11,12,54,32.60
2007,07,11,12,55,32.60
2007,07,11,12,56,32.80
2007,07,11,12,57,32.80
2007,07,11,12,58,32.90
2007,07,11,12,59,32.90
2007,07,11,13,00,32.90
2007,07,11,13,01,33.00
2007,07,11,13,02,33.00
2007,07,11,13,03,33.10
2007,07,11,13,04,33.10
2007,07,11,13,05,33.10
2007,07,11,13,06,33.10
2007,07,11,13,07,33.10
2007,07,11,13,08,33.00
2007,07,11,13,09,33.00
2007,07,11,13,10,33.00
2007,07,11,13,11,33.00
2007,07,11,13,12,33.10
2007,07,11,13,13,33.10
2007,07,11,13,14,33.20
2007,07,11,13,15,33.20
2007,07,11,13,16,33.10
2007,07,11,13,17,33.20
2007,07,11,13,18,33.40
2007,07,11,13,19,33.40
2007,07,11,13,20,33.40
2007,07,11,13,21,33.30
2007,07,11,13,22,33.20
2007,07,11,13,23,33.20
2007,07,11,13,24,33.20
2007,07,11,13,25,33.20
2007,07,11,13,26,33.20
2007,07,11,13,27,33.30
2007,07,11,13,28,33.40
2007,07,11,13,29,33.40
2007,07,11,13,30,33.40
2007,07,11,13,31,33.30
2007,07,11,13,32,33.20
2007,07,11,13,33,33.30
2007,07,11,13,34,33.40
2007,07,11,13,35,33.50
2007,07,11,13,36,33.60
2007,07,11,13,37,33.70
2007,07,11,13,38,33.60
2007,07,11,13,39,33.50
2007,07,11,13,40,33.50
2007,07,11,13,41,33.50
2007,07,11,13,42,33.50
2007,07,11,13,43,33.40
2007,07,11,13,44,33.40
2007,07,11,13,45,33.40
2007,07,11,13,46,33.40
2007,07,11,13,47,33.40
2007,07,11,13,48,33.40
2007,07,11,13,49,33.40
2007,07,11,13,50,33.40
2007,07,11,13,51,33.50
2007,07,11,13,52,33.50
2007,07,11,13,53,33.50
2007,07,11,13,54,33.60
2007,07,11,13,55,33.60
2007,07,11,13,56,33.60
2007,07,11,13,57,33.40
2007,07,11,13,58,33.40
2007,07,11,13,59,33.40
2007,07,11,14,00,33.30
2007,07,11,14,01,33.20
2007,07,11,14,02,33.20
2007,07,11,14,03,33.20
2007,07,11,14,04,33.20
2007,07,11,14,05,33.20
2007,07,11,14,06,33.20
2007,07,11,14,07,33.20
2007,07,11,14,08,33.20
2007,07,11,14,09,33.20
2007,07,11,14,10,33.20
2007,07,11,14,11,33.20
2007,07,11,14,12,33.30
2007,07,11,14,13,33.40
2007,07,11,14,14,33.40
2007,07,11,14,15,33.50
2007,07,11,14,16,33.60
2007,07,11,14,17,33.70
2007,07,11,14,18,33.70
2007,07,11,14,19,33.60
2007,07,11,14,20,33.50
2007,07,11,14,21,33.50
2007,07,11,14,22,33.50
2007,07,11,14,23,33.60
2007,07,11,14,24,33.60
2007,07,11,14,25,33.70
2007,07,11,14,26,33.80
2007,07,11,14,27,33.90
2007,07,11,14,28,34.00
2007,07,11,14,29,34.00
2007,07,11,14,30,34.00
2007,07,11,14,31,34.00
2007,07,11,14,32,34.00
2007,07,11,14,33,34.10
2007,07,11,14,34,34.10
2007,07,11,14,35,34.20
2007,07,11,14,36,34.20
2007,07,11,14,37,34.30
2007,07,11,14,38,34.30
2007,07,11,14,39,34.30
2007,07,11,14,40,34.30
2007,07,11,14,41,34.30
2007,07,11,14,42,34.50
2007,07,11,14,43,34.50
2007,07,11,14,44,34.40
2007,07,11,14,45,34.30
2007,07,11,14,46,34.30
2007,07,11,14,47,34.20
2007,07,11,14,48,34.20
2007,07,11,14,49,34.30
2007,07,11,14,50,34.30
2007,07,11,14,51,34.40
2007,07,11,14,52,34.40
2007,07,11,14,53,34.60
2007,07,11,14,54,34.60
2007,07,11,14,55,34.70
2007,07,11,14,56,34.70
2007,07,11,14,57,34.80
2007,07,11,14,58,34.80
2007,07,11,14,59,34.80
2007,07,11,15,00,34.90
2007,07,11,15,01,34.90
2007,07,11,15,02,35.10
2007,07,11,15,03,35.10
2007,07,11,15,04,35.10
2007,07,11,15,05,35.30
2007,07,11,15,06,35.30
2007,07,11,15,07,35.30
2007,07,11,15,08,35.40
2007,07,11,15,09,35.50
2007,07,11,15,10,35.50
2007,07,11,15,11,35.60
2007,07,11,15,12,35.60
2007,07,11,15,13,35.70
2007,07,11,15,14,35.90
2007,07,11,15,15,36.00
2007,07,11,15,16,36.10
2007,07,11,15,17,36.20
2007,07,11,15,18,36.20
2007,07,11,15,19,36.20
2007,07,11,15,20,36.20
2007,07,11,15,21,36.10
2007,07,11,15,22,35.90
2007,07,11,15,23,35.80
2007,07,11,15,24,35.70
2007,07,11,15,25,35.70
2007,07,11,15,26,35.90
2007,07,11,15,27,35.90
2007,07,11,15,28,35.90
2007,07,11,15,29,35.90
2007,07,11,15,30,35.90
2007,07,11,15,31,35.80
2007,07,11,15,32,35.70
2007,07,11,15,33,35.60
2007,07,11,15,34,35.50
2007,07,11,15,35,35.50
2007,07,11,15,36,35.50
2007,07,11,15,37,35.40
2007,07,11,15,38,35.30
2007,07,11,15,39,35.30
2007,07,11,15,40,35.30
2007,07,11,15,41,35.40
2007,07,11,15,42,35.50
2007,07,11,15,43,35.40
2007,07,11,15,44,35.20
2007,07,11,15,45,35.20
2007,07,11,15,46,35.10
2007,07,11,15,47,35.10
2007,07,11,15,48,35.20
2007,07,11,15,49,35.20
2007,07,11,15,50,35.10
2007,07,11,15,51,35.10
2007,07,11,15,52,35.10
2007,07,11,15,53,35.10
2007,07,11,15,54,35.10
2007,07,11,15,55,35.10
2007,07,11,15,56,35.20
2007,07,11,15,57,35.10
2007,07,11,15,58,34.90
2007,07,11,15,59,34.90
2007,07,11,16,00,34.90
2007,07,11,16,01,34.90
2007,07,11,16,02,34.90
2007,07,11,16,03,35.00
2007,07,11,16,04,35.10
2007,07,11,16,05,35.10
2007,07,11,16,06,35.20
2007,07,11,16,07,35.20
2007,07,11,16,08,35.10
2007,07,11,16,09,35.10
2007,07,11,16,10,35.20
2007,07,11,16,11,35.20
2007,07,11,16,12,35.20
2007,07,11,16,13,35.30
2007,07,11,16,14,35.20
2007,07,11,16,15,35.20
2007,07,11,16,16,35.30
2007,07,11,16,17,35.30
2007,07,11,16,18,35.30
2007,07,11,16,19,35.30
2007,07,11,16,20,35.20
2007,07,11,16,21,35.10
2007,07,11,16,22,35.00
2007,07,11,16,23,34.90
2007,07,11,16,24,34.80
2007,07,11,16,25,34.80
2007,07,11,16,26,34.80
2007,07,11,16,27,34.80
2007,07,11,16,28,34.80
2007,07,11,16,29,34.80
2007,07,11,16,30,34.80
2007,07,11,16,31,34.80
2007,07,11,16,32,34.80
2007,07,11,16,33,34.90
2007,07,11,16,34,34.90
2007,07,11,16,35,34.90
2007,07,11,16,36,35.00
2007,07,11,16,37,35.20
2007,07,11,16,38,35.20
2007,07,11,16,39,35.30
2007,07,11,16,40,35.30
2007,07,11,16,41,35.30
2007,07,11,16,42,35.30
2007,07,11,16,43,35.30
2007,07,11,16,44,35.50
2007,07,11,16,45,35.50
2007,07,11,16,46,35.50
2007,07,11,16,47,35.50
2007,07,11,16,48,35.60
2007,07,11,16,49,35.60
2007,07,11,16,50,35.60
2007,07,11,16,51,35.60
2007,07,11,16,52,35.50
2007,07,11,16,53,35.50
2007,07,11,16,54,35.50
2007,07,11,16,55,35.50
2007,07,11,16,56,35.60
2007,07,11,16,57,35.70
2007,07,11,16,58,35.70
2007,07,11,16,59,35.60
2007,07,11,17,00,35.50
2007,07,11,17,01,35.50
2007,07,11,17,02,35.50
2007,07,11,17,03,35.50
2007,07,11,17,04,35.30
2007,07,11,17,05,35.50
2007,07,11,17,06,35.50
2007,07,11,17,07,35.50
2007,07,11,17,08,35.50
2007,07,11,17,09,35.60
2007,07,11,17,10,35.60
2007,07,11,17,11,35.60
2007,07,11,17,12,35.60
2007,07,11,17,13,35.60
2007,07,11,17,14,35.60
2007,07,11,17,15,35.60
2007,07,11,17,16,35.50
2007,07,11,17,17,35.50
2007,07,11,17,18,35.30
2007,07,11,17,19,35.40